Location: Derby
(52.9213°N, 1.4761°W)
Time: 15:33:04
(UTC+01:00)

Vanguard 1 - Pass Details

Date: 22 May 2025
Orbit: 649 x 3822 km, 34.3° (Epoch: 14 June)

Event Time Altitude Azimuth Distance (km) Brightness Sun altitude
Rises 18:57:59 0° 240° (WSW) 7,514 15.3 16.9°
Reaches altitude 10° 19:04:19 10° 232° (SW) 6,086 14.8 16.0°
Maximum altitude 19:18:16 31° 180° (S) 3,376 12.8 14.0°
Drops below altitude 10° 19:27:02 10° 123° (ESE) 3,787 12.5 12.7°
Sets 19:29:55 0° 112° (ESE) 4,415 12.8 12.3°
